This demonstration page uses our WeatherBlox Daily Observations layout. Learn more.

Left ArrowRight Arrow

38.88101, -77.10428

Hourly Observations for September 16, 2021

Temp ( °F °C ) Dew Point ( °F °C ) Humidity (%) Winds ( mph kmh ) Pressure ( in mb ) Visibility ( mi km ) Precip ( " mm )
12:52 am 00:52 Cloudy 78 25.6 64 17.8 62 62 N 6 9 30.05 1018 10 16 N/A
1:52 am 01:52 Cloudy 77 25 65 18.3 66 66 N N/A 30.04 1017 10 16 N/A
2:52 am 02:52 Cloudy 76 24.4 65 18.3 69 69 NE 6 9 30.04 1017 10 16 N/A
3:52 am 03:52 Cloudy 75 23.9 66 18.9 74 74 NNW 9 15 30.04 1017 10 16 N/A
4:52 am 04:52 Cloudy 73 22.8 65 18.3 76 76 N 8 13 30.05 1018 10 16 N/A
5:52 am 05:52 Cloudy 73 22.8 65 18.3 76 76 NE 5 7 30.06 1018 10 16 N/A
6:52 am 06:52 Cloudy 73 22.8 65 18.3 76 76 NE 10 17 30.07 1018 10 16 N/A
7:52 am 07:52 Cloudy 73 22.8 66 18.9 79 79 NE 9 15 30.11 1020 10 16 N/A
8:37 am 08:37 Cloudy 74 23.3 66 18.9 76 76 NNE 9 15 30.12 1020 10 16 N/A
8:52 am 08:52 Cloudy 74 23.3 66 18.9 76 76 NE 10 17 30.12 1020 10 16 N/A
9:52 am 09:52 Cloudy 76 24.4 67 19.4 74 74 NNE 7 11 30.14 1021 10 16 N/A
10:52 am 10:52 Cloudy 77 25 68 20 74 74 NE 8 13 30.14 1021 10 16 N/A
11:52 am 11:52 Mostly Cloudy 80 26.7 69 20.6 69 69 NE 3 6 30.14 1021 10 16 N/A
12:52 pm 12:52 Mostly Cloudy 82 27.8 70 21.1 67 67 NE 7 11 30.13 1020 10 16 N/A
1:31 pm 13:31 Cloudy 84 28.9 69 20.6 61 61 N N/A 30.12 1020 10 16 N/A
1:52 pm 13:52 Cloudy 83 28.3 70 21.1 65 65 E 5 7 30.12 1020 10 16 N/A
2:52 pm 14:52 Cloudy with Thunderstorms 82 27.8 70 21.1 67 67 NE 8 13 30.10 1019 10 16 0.00 0.00
2:57 pm 14:57 Cloudy with Thunderstorms 79 26.1 72 22.2 79 79 N 21 33 30.10 1019 7 11 0.00 0.00
3:07 pm 15:07 Cloudy with Light Rain 74 23.3 67 19.4 79 79 N 21 33 30.10 1019 10 16 0.01 0.25
3:09 pm 15:09 Windy with Storms Likely 75 23.9 67 19.4 76 76 N 20 31 30.10 1019 10 16 0.01 0.25
3:35 pm 15:35 Cloudy with Thunderstorms 74 23.3 68 20 82 82 NNW 10 17 30.09 1019 10 16 0.01 0.25
3:52 pm 15:52 Cloudy with Thunderstorms 76 24.4 71 21.7 85 85 N 8 13 30.09 1019 10 16 0.01 0.25
4:10 pm 16:10 Cloudy with Nearby Thunderstorms 77 25 71 21.7 82 82 NNW 10 17 30.11 1020 10 16 N/A
4:35 pm 16:35 Cloudy with Light Rain 77 25 71 21.7 82 82 NNW 10 17 30.10 1019 9 14 0.00 0.00
4:52 pm 16:52 Cloudy with Light Rain 75 23.9 71 21.7 88 88 N 6 9 30.10 1019 9 14 0.01 0.25
4:57 pm 16:57 Cloudy with Thunderstorms 75 23.9 71 21.7 88 88 N N/A 30.11 1020 10 16 0.00 0.00
5:08 pm 17:08 Cloudy with Strong Thunderstorms 75 23.9 70 21.1 84 84 SSE 9 15 30.12 1020 2 3 0.03 0.76
5:20 pm 17:20 Cloudy with Strong Thunderstorms 73 22.8 69 20.6 87 87 S 8 13 30.14 1021 1 1 0.23 5.84
5:37 pm 17:37 Cloudy with Strong Thunderstorms 73 22.8 68 20 84 84 W 5 7 30.13 1020 1 2 0.59 14.99
5:46 pm 17:46 Cloudy with Nearby Thunderstorms 72 22 68 20 88 88 W 9 15 30.13 1020 4 6 0.61 15.49
5:52 pm 17:52 Cloudy with Thunderstorms 73 22.8 69 20.6 87 87 WNW 5 7 30.13 1020 5 8 0.61 15.49
6:06 pm 18:06 Cloudy with Light Rain 73 22.8 69 20.6 87 87 N 5 7 30.13 1020 6 10 0.02 0.51
6:52 pm 18:52 Cloudy with Light Rain 73 22.8 69 20.6 87 87 NNW 8 13 30.14 1021 6 10 0.13 3.30
7:19 pm 19:19 Cloudy with Light Rain 74 23.3 70 21.1 88 88 NE 7 11 30.15 1021 10 16 0.02 0.51
7:52 pm 19:52 Cloudy with Light Rain 74 23.3 70 21.1 88 88 NNE 8 13 30.16 1022 10 16 0.02 0.51
7:54 pm 19:54 Mostly Cloudy with Light Rain 74 23.3 70 21.1 88 88 NNE 9 15 30.17 1022 10 16 0.00 0.00
8:38 pm 20:38 Mostly Cloudy 74 23.3 70 21.1 88 88 NNE 8 13 30.18 1022 10 16 0.01 0.25
8:52 pm 20:52 Cloudy 73 22.8 70 21.1 90 90 NNE 9 15 30.18 1022 10 16 0.01 0.25
8:57 pm 20:57 Cloudy 73 22.8 70 21.1 90 90 NNE 7 11 30.18 1022 10 16 N/A
9:52 pm 21:52 Cloudy 73 22.8 69 20.6 87 87 NE 7 11 30.18 1022 10 16 N/A
9:54 pm 21:54 Cloudy 73 22.8 69 20.6 87 87 NE 6 9 30.18 1022 10 16 N/A
10:03 pm 22:03 Cloudy 73 22.8 70 21.1 90 90 NNE 7 11 30.18 1022 10 16 N/A
10:52 pm 22:52 Cloudy 73 22.8 69 20.6 87 87 NNE 9 15 30.17 1022 10 16 N/A
11:35 pm 23:35 Cloudy 73 22.8 70 21.1 90 90 ENE 9 15 30.18 1022 10 16 N/A
11:52 pm 23:52 Cloudy 73 22.8 70 21.1 90 90 NE 10 17 30.17 1022 10 16 N/A

Powered by AerisWeather